Home > Weather > Sankt Augustin > Past weeks

Flag for Germany Past Weather in Sankt Augustin, North Rhine-Westphalia, Germany — Yesterday and Last 2 Weeks

Now
57 °F

Fog.


Feels Like: 57 °F
Forecast: 58 / 71 °F
Wind: 5 mph from East

Location: Koeln / Bonn

Current Time: Jun 28, 2016 at 8:07:43 AM

Latest Report: Jun 28, 2016 at 7:20 AM


Visibility: 3 mi

Pressure: 30.09 "Hg

Humidity: 100%

Dew Point: 57 °F

Location of Sankt AugustinLocation

Past Weather in Sankt Augustin — Graph

°F

Sankt Augustin Temperature Yesterday

Maximum temperature yesterday: 64 °F (at 12:50 PM)
Minimum temperature yesterday: 52 °F (at 1:20 AM)
Average temperature yesterday: 59 °F

High & Low Weather Summary for the Past Weeks

 TemperatureHumidityPressure
High91 °F (Jun 23, 3:20 PM)100% (Jun 13, 7:20 AM)30.27 "Hg (Jun 13, 7:20 AM)
Low45 °F (Jun 16, 2:50 AM)41% (Jun 23, 5:20 PM)29.47 "Hg (Jun 14, 5:50 PM)
Average62 °F83%29.93 "Hg
* Reported Jun 13 6:20 AM — Jun 28 6:50 AM, Sankt Augustin, Weather by CustomWeather, © 2016

Note: Actual official high and low records may vary slightly from our data, if they occured in-between our weather recording intervals... More about our weather records

Advertising

Sankt Augustin Weather History for the Previous 24 Hours

Scroll right to see more
 ConditionsComfort  
Time TempWeatherWind HumidityBarometerVisibility
6:50 AM
Tue, Jun 28
57 °FFog.3 mph100%30.09 "Hg2 mi
6:20 AM57 °FFog.5 mph100%30.09 "Hg2 mi
5:50 AM57 °FFog.3 mph94%30.09 "Hg2 mi
5:20 AM57 °FCool.5 mph94%30.09 "Hg1 mi
4:50 AM55 °FFog.5 mph100%30.09 "Hg4 mi
4:20 AM55 °FFog.3 mph100%30.09 "HgN/A
3:50 AM57 °FFog.1 mph100%30.09 "HgN/A
3:20 AM57 °FFog.2 mph100%30.09 "HgN/A
2:50 AM57 °FFog.3 mph100%30.09 "HgN/A
2:20 AM57 °FFog.3 mph100%30.12 "HgN/A
1:50 AM57 °FPassing clouds.2 mph100%30.12 "HgN/A
1:20 AM57 °FPassing clouds.1 mph100%30.12 "HgN/A
12:50 AM57 °FFog.1 mph100%30.12 "HgN/A
12:20 AM57 °FPartly cloudy.1 mph100%30.12 "HgN/A
11:50 PM
Mon, Jun 27
59 °FPartly cloudy.2 mph94%30.09 "HgN/A
11:20 PM57 °FFog.2 mph100%30.09 "HgN/A
10:50 PM59 °FFog.2 mph94%30.09 "HgN/A
10:20 PM59 °FBroken clouds.3 mph94%30.09 "HgN/A
9:50 PM61 °FSprinkles. Scattered clouds.7 mph88%30.09 "HgN/A
9:20 PM63 °FPartly sunny.7 mph88%30.07 "HgN/A
8:50 PM64 °FBroken clouds.9 mph83%30.07 "HgN/A
8:20 PM63 °FSprinkles. Broken clouds.3 mph94%30.07 "HgN/A
7:50 PM63 °FSprinkles. Scattered clouds.3 mph94%30.07 "HgN/A
7:20 PM63 °FScattered showers. Broken clouds.5 mph94%30.07 "HgN/A
6:50 PM64 °FPartly sunny.5 mph88%30.07 "HgN/A
6:20 PM64 °FPartly sunny.3 mph88%30.07 "HgN/A
5:50 PM63 °FDrizzle. Broken clouds.3 mph94%30.07 "HgN/A
5:20 PM63 °FDrizzle. Broken clouds.1 mph94%30.07 "Hg6 mi
4:50 PM63 °FDrizzle. Partly sunny.5 mph94%30.07 "HgN/A
4:20 PM64 °FDrizzle. Partly sunny.5 mph83%30.07 "Hg4 mi
3:50 PM63 °FLight rain. Partly sunny.6 mph88%30.07 "HgN/A
3:20 PM64 °FLight rain. Partly sunny.7 mph78%30.07 "HgN/A
2:50 PM64 °FPartly sunny.9 mph73%30.07 "HgN/A
2:20 PM64 °FLight rain. Partly sunny.6 mph78%30.07 "HgN/A
1:50 PM64 °FLight rain. Partly sunny.9 mph73%30.09 "HgN/A
1:20 PM63 °FLight rain. Broken clouds.8 mph77%30.09 "HgN/A
12:50 PM64 °FLight rain. Partly sunny.10 mph73%30.09 "HgN/A
12:20 PM61 °FLight rain. Partly sunny.7 mph83%30.09 "HgN/A
11:50 AM61 °FLight rain. Partly sunny.8 mph83%30.09 "HgN/A
11:20 AM63 °FLight rain. Partly sunny.9 mph73%30.09 "HgN/A
10:50 AM63 °FBroken clouds.9 mph73%30.09 "HgN/A
10:20 AM63 °FPartly sunny.7 mph68%30.09 "HgN/A
9:50 AM61 °FPartly sunny.8 mph72%30.09 "HgN/A
9:20 AM61 °FPartly sunny.9 mph72%30.09 "HgN/A
8:50 AM59 °FPartly sunny.8 mph77%30.09 "HgN/A
8:20 AM59 °FScattered clouds.8 mph77%30.09 "HgN/A
Weather by CustomWeather, © 2016

See weather overviewHow to use our weather pages